STARLINK-36718, 67715

Orbit data source: Space-Track

STARLINK-36718, 67715 is a payload satellite owned by SpaceX/Seattle (US) in SSO that was launched on Sat, 07 Feb 2026 UTC via an FALCON 9 launch vehicle from the Air Force Western Test Range (AFWTR). Payload-class satellites include a variety of spacecraft equipped with specific instruments for various scientific and technological missions. These include communications satellites like Starlink; space stations such as the ISS; scientific satellites like the Hubble; Earth observation satellites from companies like Planet Labs, Umbra, and HawkEye 360; GPS; miniature CubeSats for education and research; and military/defense satellites.

Loading next visibility...
Identifier
67715, 2026-025Y
Orbit
SSO
Country
Flag of USUS
Related business
Manufacturer
SpaceX/Seattle
Mission
Operational spacecraft
Bus & Motor
STARLINK V2MO, Unknown motor
Mass
575 kg wet, ~530 kg dry
Launch date (UTC)
2026-02-07 (2 months ago)
Launch vehicle
FALCON 9
Launch site
Air Force Western Test Range (AFWTR)
Object type
Payload
Rocket body
Debris
Shape & HBR
Unknown shape, 17.7 m
Radar Cross Section
RCS unknown

Expand to show TLE details & history
Last TLE update: 8 hours ago

TLE from 8 hours ago
0 STARLINK-36718
1 67715U 26025Y   26104.06690397  .00014316  00000-0  44493-3 0  9996
2 67715  97.2898 216.2482 0000868 240.6122 119.5034 15.33445838 11431
Epoch: 2026-04-14T01:36Z
TLE epoch observation values (Epoch: 2026-04-14T01:36:20.503Z)
Latitude
-0.00001°
Longitude
-10.08571°
Altitude
468.945 km
Speed
7.632 km/s
True Right ascension
14h 24m 59s
True Declination
0° 00' 00"
Sunlit
Object was in full shadow at epoch
Visualization orbit readout
Latitude
Unknown
Longitude
Unknown
Altitude
Unknown
Speed
Unknown
Apparent Right ascension
Unknown
Apparent Declination
Unknown
Sunlit
N/A
Visualization observer readout
Local Sidereal Time
15:38:04
Azimuth
Unknown
Elevation
Unknown
Doppler factor
Unknown
Orbital elements
Apogee altitude
463.077 km
Perigee altitude
461.89 km
Semi-major axis
6,840.621 km
Eccentricity
0.00009
Inclination
97.2898°
RAAN
216.2482°
Arg. of periapsis
240.6122°
True anomaly
119.51206°
Mean anomaly
119.5034°
Eccentric anomaly
119.50773°
Mean motion
3.83619 °/min
Orbital period
93.84 mins
BSTAR
0.00044493
Loading maneuver chart data...
Computing Atmospheric mass density...
Loading historical data...
Loading historical data...
Loading historical data...
Loading historical data...
Loading historical data...
Loading historical data...
Loading historical data...

Documentation

Showing up to 5 results
|